Regional Weather Roundup
Issued by NWS State College, PA

Home | Current Version | Previous Version | Text Only | Print | Product List | Glossary On
Versions: 1 2 3 4 5 6 7 8 9 10 11 12 13 14 15 16 17 18 19 20 21 22 23 24 25 26 27 28 29 30 31 32 33 34 35 36 37 38 39 40 41 42 43 44 45 46 47 48 49 50
000
ASUS41 KCTP 311703
RWRCTP

REGIONAL WEATHER ROUNDUP
NATIONAL WEATHER SERVICE STATE COLLEGE PA
100 PM EDT THU JUL 31 2014

Note: "fair" indicates few or no clouds below 12,000 feet with no
significant weather and/or obstructions to visibility.

* = STATION THAT DOES NOT REPORT PRECIPITATION /E.G. RAIN...SNOW...ETC/
    THUNDER OR FOG.

PAZ002>004-007>009-013>016-020>023-029>032-311800-
WESTERN PENNSYLVANIA

CITY           SKY/WX    TMP DP  RH WIND       PRES   REMARKS
ERIE           PTSUNNY   73  57  57 W10G21    30.05S
MEADVILLE      MOSUNNY   71  54  54 W10G18    30.08S
FRANKLIN*      PTSUNNY   72  54  53 S10       30.10S
NEW CASTLE     FAIR      74  61  63 SW6       30.10S
BEAVER COUNTY  CLOUDY    72  59  64 SW5       30.10S
BUTLER*        PTSUNNY   72  61  68 W10       30.12S
PITTSBURGH INT PTSUNNY   72  60  66 W14       30.10S
PITTSBURGH     PTSUNNY   72  59  63 SW8       30.10S
INDIANA*       PTSUNNY   70  61  73 W12       30.15S
LATROBE        PTSUNNY   73  64  73 SW12      30.12F
WASHINGTON CO* PTSUNNY   73  63  68 SW7       30.12S
$$

PAZ004>006-010>012-017>019-024>028-033>037-041-042-045-046-049>053-311800-
CENTRAL PENNSYLVANIA

CITY           SKY/WX    TMP DP  RH WIND       PRES   REMARKS
BRADFORD       MOSUNNY   67  53  61 SW9G20    30.10S
DUBOIS         PTSUNNY   69  59  70 SW10G17   30.11S
CLEARFIELD     CLOUDY    68  60  75 S9        30.12S
JOHNSTOWN      MOSUNNY   69  56  62 W13       30.14S
ALTOONA        MOSUNNY   73  61  65 SW10      30.13S
STATE COLLEGE  MOSUNNY   70  63  78 SW6       30.11F
WILLIAMSPORT   CLOUDY    68  59  73 SE5       30.10S
SELINSGROVE    MOSUNNY   75  63  66 VRB5      30.10F
FT INDIANTOWN  SUNNY     79  61  54 SW12      30.09F
CAPITAL CITY   MOSUNNY   78  63  59 W7        30.09F
HARRISBURG     MOSUNNY   79  62  56 VRB3      30.08F
YORK           MOSUNNY   80  60  50 VRB6      30.10S
$$

PAZ038>040-043-044-047-048-054-055-060>062-067>071-311800-
EASTERN PENNSYLVANIA

CITY           SKY/WX    TMP DP  RH WIND       PRES   REMARKS
SCRANTON       SUNNY     77  55  46 W14G20    30.09S
MOUNT POCONO   MOSUNNY   73  54  51 SW14      30.13S
ALLENTOWN      MOSUNNY   79  58  48 W13G22    30.09S
QUAKERTOWN*    MOSUNNY   79  61  53 W6        30.11S
READING        MOSUNNY   78  60  53 W6        30.08F
LANCASTER      SUNNY     78  59  51 SW7       30.10S
COATESVILLE    SUNNY     77  59  53 S5        30.12S
POTTSTOWN      PTSUNNY   79  60  52 S7        30.11F
BLUE BELL      SUNNY     81  63  54 S10G16    30.09S
DOYLESTOWN     PTSUNNY   78  59  51 W6        30.09F
WILLOW GROVE   NOT AVBL
NORTH PHILA    PTSUNNY   81  58  45 S12G17    30.10F
PHILADELPHIA   MOSUNNY   82  62  50 SW14      30.10S
$$


USA.gov is the U.S. government's official web portal to all federal, state and local government web resources and services.